Hourly Weather Bolshie Mochily

Today, 17 June, Thursday

Time Temperature Precipitation Wind Pressure Humidity
00:00 +14°C° 0 mm 3 mps 754 mmHg 85%
01:00 +13°C° 0 mm 3 mps 754 mmHg 85%
02:00 +12°C° 0 mm 3 mps 755 mmHg 85%
03:00 +12°C° 0 mm 3 mps 755 mmHg 85%
04:00 +13°C° 0 mm 2 mps 755 mmHg 84%
05:00 +14°C° 0 mm 2 mps 756 mmHg 84%
06:00 +15°C° 0 mm 2 mps 756 mmHg 83%
07:00 +17°C° 0 mm 2 mps 756 mmHg 75%
08:00 +19°C° 0 mm 3 mps 757 mmHg 66%
09:00 +21°C° 0 mm 3 mps 757 mmHg 58%
10:00 +21°C° 0 mm 3 mps 757 mmHg 54%
11:00 +22°C° 0 mm 3 mps 758 mmHg 51%
12:00 +24°C° 0 mm 3 mps 758 mmHg 47%
13:00 +25°C° 0 mm 3 mps 758 mmHg 47%
14:00 +25°C° 0 mm 3 mps 758 mmHg 48%
15:00 +25°C° 0 mm 3 mps 758 mmHg 48%
16:00 +24°C° 0 mm 3 mps 758 mmHg 53%
17:00 +24°C° 0 mm 3 mps 758 mmHg 58%
18:00 +22°C° 0 mm 4 mps 758 mmHg 63%
19:00 +20°C° 0 mm 3 mps 759 mmHg 66%
20:00 +18°C° 0 mm 3 mps 759 mmHg 69%
21:00 +17°C° 0 mm 2 mps 760 mmHg 72%
22:00 +16°C° 0 mm 2 mps 760 mmHg 74%
23:00 +15°C° 0 mm 2 mps 760 mmHg 75%

Tomorrow, 18 June, Friday

Time Temperature Precipitation Wind Pressure Humidity
00:00 +15°C° 0 mm 2 mps 760 mmHg 76%
01:00 +14°C° 0 mm 2 mps 761 mmHg 78%
02:00 +14°C° 0 mm 2 mps 761 mmHg 79%
03:00 +13°C° 0 mm 2 mps 761 mmHg 81%
04:00 +14°C° 0 mm 2 mps 761 mmHg 81%
05:00 +15°C° 0 mm 2 mps 762 mmHg 80%
06:00 +16°C° 0 mm 1 mps 762 mmHg 79%
07:00 +18°C° 0 mm 1 mps 762 mmHg 73%
08:00 +20°C° 0 mm 1 mps 762 mmHg 67%
09:00 +22°C° 0 mm 1 mps 763 mmHg 61%
10:00 +22°C° 0 mm 1 mps 763 mmHg 58%
11:00 +23°C° 0 mm 2 mps 763 mmHg 55%
12:00 +24°C° 0 mm 2 mps 762 mmHg 52%
13:00 +25°C° 0 mm 1 mps 762 mmHg 52%
14:00 +25°C° 0 mm 1 mps 762 mmHg 51%
15:00 +25°C° 0 mm 1 mps 762 mmHg 50%
16:00 +25°C° 0 mm 1 mps 762 mmHg 55%
17:00 +25°C° 0 mm 1 mps 762 mmHg 59%
18:00 +25°C° 0 mm 1 mps 761 mmHg 63%
19:00 +23°C° 0 mm 1 mps 762 mmHg 68%
20:00 +21°C° 0 mm 1 mps 762 mmHg 72%
21:00 +18°C° 0 mm 2 mps 762 mmHg 77%
22:00 +17°C° 0 mm 2 mps 762 mmHg 80%
23:00 +17°C° 0 mm 2 mps 762 mmHg 82%

Day after tomorrow, 19 June, Saturday

Time Temperature Precipitation Wind Pressure Humidity
00:00 +16°C° 0 mm 2 mps 762 mmHg 85%
01:00 +15°C° 0 mm 2 mps 762 mmHg 87%
02:00 +15°C° 0 mm 2 mps 763 mmHg 88%
03:00 +15°C° 0 mm 2 mps 763 mmHg 90%
04:00 +15°C° 0 mm 2 mps 763 mmHg 88%
05:00 +16°C° 0 mm 2 mps 763 mmHg 86%
06:00 +17°C° 0 mm 2 mps 763 mmHg 84%
07:00 +19°C° 0 mm 2 mps 763 mmHg 79%
08:00 +20°C° 0 mm 2 mps 763 mmHg 74%
09:00 +23°C° 0 mm 2 mps 763 mmHg 69%
10:00 +24°C° 0 mm 2 mps 762 mmHg 65%
11:00 +25°C° 0 mm 2 mps 762 mmHg 62%
12:00 +26°C° 0 mm 2 mps 762 mmHg 59%
13:00 +26°C° 0 mm 2 mps 762 mmHg 58%
14:00 +26°C° 0 mm 2 mps 761 mmHg 57%
15:00 +27°C° 0 mm 3 mps 761 mmHg 56%
16:00 +26°C° 0 mm 2 mps 761 mmHg 60%
17:00 +26°C° 0 mm 2 mps 761 mmHg 64%
18:00 +26°C° 0 mm 2 mps 760 mmHg 68%
19:00 +24°C° 0 mm 2 mps 760 mmHg 73%
20:00 +21°C° 0 mm 2 mps 760 mmHg 77%
21:00 +19°C° 0 mm 2 mps 760 mmHg 82%
22:00 +18°C° 0 mm 2 mps 760 mmHg 83%
23:00 +17°C° 0 mm 2 mps 760 mmHg 84%

20 June, Sunday

Time Temperature Precipitation Wind Pressure Humidity
00:00 +17°C° 0 mm 2 mps 761 mmHg 84%
01:00 +16°C° 0 mm 2 mps 761 mmHg 86%
02:00 +16°C° 0 mm 1 mps 761 mmHg 87%
03:00 +15°C° 0 mm 1 mps 761 mmHg 89%
04:00 +16°C° 0 mm 1 mps 761 mmHg 87%
05:00 +18°C° 0 mm 1 mps 761 mmHg 85%
06:00 +19°C° 0 mm 1 mps 761 mmHg 83%
07:00 +21°C° 0 mm 1 mps 761 mmHg 77%
08:00 +22°C° 0 mm 1 mps 761 mmHg 71%
09:00 +24°C° 0 mm 1 mps 760 mmHg 66%
10:00 +25°C° 0 mm 1 mps 760 mmHg 62%
11:00 +26°C° 0 mm 1 mps 760 mmHg 58%
12:00 +27°C° 0 mm 2 mps 760 mmHg 54%
13:00 +27°C° 0 mm 1 mps 760 mmHg 53%
14:00 +28°C° 0 mm 1 mps 759 mmHg 52%
15:00 +28°C° 0 mm 1 mps 759 mmHg 51%
16:00 +28°C° 0 mm 1 mps 759 mmHg 56%
17:00 +28°C° 0 mm 1 mps 759 mmHg 60%
18:00 +28°C° 0 mm 1 mps 759 mmHg 65%
19:00 +26°C° 0 mm 1 mps 758 mmHg 70%
20:00 +24°C° 0 mm 1 mps 758 mmHg 74%
21:00 +22°C° 0 mm 1 mps 758 mmHg 79%
22:00 +21°C° 0 mm 1 mps 758 mmHg 81%
23:00 +20°C° 0 mm 1 mps 758 mmHg 83%

21 June, Monday

Time Temperature Precipitation Wind Pressure Humidity
00:00 +20°C° 0 mm 1 mps 759 mmHg 85%
01:00 +19°C° 0 mm 1 mps 759 mmHg 85%
02:00 +17°C° 0 mm 0 mps 759 mmHg 86%
03:00 +17°C° 0 mm 0 mps 758 mmHg 87%
04:00 +17°C° 0 mm 0 mps 759 mmHg 85%
05:00 +18°C° 0 mm 0 mps 759 mmHg 83%
06:00 +19°C° 0 mm 0 mps 759 mmHg 82%
07:00 +21°C° 0 mm 0 mps 759 mmHg 77%
08:00 +22°C° 0 mm 0 mps 759 mmHg 73%
09:00 +26°C° 0 mm 1 mps 758 mmHg 68%
10:00 +26°C° 0 mm 1 mps 758 mmHg 65%
11:00 +27°C° 0 mm 1 mps 758 mmHg 62%
12:00 +28°C° 0 mm 1 mps 758 mmHg 59%
13:00 +28°C° 0 mm 1 mps 758 mmHg 60%
14:00 +28°C° 0 mm 1 mps 758 mmHg 61%
15:00 +28°C° 0 mm 1 mps 758 mmHg 62%
16:00 +28°C° 0 mm 1 mps 757 mmHg 65%
17:00 +28°C° 0 mm 1 mps 757 mmHg 67%
18:00 +28°C° 0 mm 1 mps 757 mmHg 69%
19:00 +26°C° 0 mm 1 mps 757 mmHg 73%
20:00 +24°C° 0 mm 1 mps 757 mmHg 78%
21:00 +20°C° 0 mm 0 mps 757 mmHg 82%
22:00 +20°C° 0 mm 0 mps 757 mmHg 83%
23:00 +19°C° 0 mm 0 mps 757 mmHg 84%

22 June, Tuesday

Time Temperature Precipitation Wind Pressure Humidity
00:00 +19°C° 0 mm 0 mps 757 mmHg 84%
01:00 +19°C° 0 mm 0 mps 757 mmHg 85%
02:00 +18°C° 0 mm 0 mps 757 mmHg 86%
03:00 +18°C° 0 mm 0 mps 757 mmHg 86%
04:00 +19°C° 0 mm 0 mps 758 mmHg 85%
05:00 +20°C° 0 mm 0 mps 758 mmHg 83%
06:00 +20°C° 0 mm 0 mps 758 mmHg 82%
07:00 +22°C° 0 mm 0 mps 758 mmHg 77%
08:00 +25°C° 0 mm 1 mps 758 mmHg 72%
09:00 +27°C° 0 mm 1 mps 758 mmHg 68%
10:00 +28°C° 0 mm 1 mps 758 mmHg 63%
11:00 +29°C° 0 mm 1 mps 758 mmHg 59%
12:00 +28°C° 0 mm 0 mps 758 mmHg 55%
13:00 +30°C° 0 mm 1 mps 758 mmHg 54%
14:00 +30°C° 0 mm 1 mps 757 mmHg 52%
15:00 +31°C° 0 mm 1 mps 757 mmHg 51%
16:00 +30°C° 0 mm 1 mps 757 mmHg 56%
17:00 +30°C° 0 mm 1 mps 757 mmHg 61%
18:00 +29°C° 0 mm 1 mps 757 mmHg 66%
19:00 +28°C° 0 mm 1 mps 757 mmHg 69%
20:00 +26°C° 0 mm 1 mps 757 mmHg 71%
21:00 +24°C° 0 mm 1 mps 757 mmHg 74%
22:00 +23°C° 0 mm 1 mps 757 mmHg 75%
23:00 +23°C° 0 mm 1 mps 757 mmHg 77%
Show more